• In Hungary
  • List of Countries
  • For 7 days
  • Water Temperature
  • Satellite Maps
  • Weather Map
  • News
  • Weather Widgets
  • user-avatar
    Login

    Hourly Weather Irkilik

    Today, 13 December, Wednesday

    Time Temperature Precipitation Wind Pressure Humidity
    00:00 -28°C° 0 mm 2 mps 666 mmHg 81%
    01:00 -27°C° 0 mm 2 mps 666 mmHg 80%
    02:00 -27°C° 0 mm 2 mps 666 mmHg 82%
    03:00 -27°C° 0 mm 2 mps 666 mmHg 84%
    04:00 -27°C° 0 mm 2 mps 666 mmHg 87%
    05:00 -24°C° 0.1 mm 1 mps 666 mmHg 88%
    06:00 -23°C° 0.1 mm 1 mps 666 mmHg 90%
    07:00 -25°C° 0 mm 1 mps 667 mmHg 91%
    08:00 -24°C° 0.1 mm 1 mps 667 mmHg 90%
    09:00 -23°C° 0.1 mm 1 mps 667 mmHg 89%
    10:00 -22°C° 0.1 mm 1 mps 668 mmHg 87%
    11:00 -21°C° 0.1 mm 1 mps 668 mmHg 86%
    12:00 -20°C° 0.1 mm 1 mps 668 mmHg 84%
    13:00 -19°C° 0.1 mm 1 mps 669 mmHg 83%
    14:00 -20°C° 0.1 mm 1 mps 669 mmHg 86%
    15:00 -21°C° 0.1 mm 1 mps 669 mmHg 90%
    16:00 -22°C° 0.1 mm 1 mps 668 mmHg 93%
    17:00 -22°C° 0.1 mm 1 mps 669 mmHg 93%
    18:00 -22°C° 0.1 mm 1 mps 669 mmHg 94%
    19:00 -22°C° 0.1 mm 1 mps 669 mmHg 94%
    20:00 -22°C° 0.1 mm 1 mps 669 mmHg 94%
    21:00 -21°C° 0.1 mm 1 mps 669 mmHg 94%
    22:00 -21°C° 0.1 mm 1 mps 670 mmHg 95%
    23:00 -21°C° 0.1 mm 1 mps 670 mmHg 95%

    Tomorrow, 14 December, Thursday

    Time Temperature Precipitation Wind Pressure Humidity
    00:00 -20°C° 0.1 mm 1 mps 670 mmHg 95%
    01:00 -20°C° 0.1 mm 1 mps 670 mmHg 95%
    02:00 -20°C° 0.1 mm 1 mps 670 mmHg 95%
    03:00 -23°C° 0.1 mm 2 mps 670 mmHg 95%
    04:00 -23°C° 0.1 mm 2 mps 670 mmHg 95%
    05:00 -23°C° 0.1 mm 2 mps 670 mmHg 96%
    06:00 -23°C° 0.1 mm 2 mps 670 mmHg 96%
    07:00 -23°C° 0.1 mm 2 mps 670 mmHg 96%
    08:00 -21°C° 0.1 mm 2 mps 670 mmHg 93%
    09:00 -22°C° 0.1 mm 3 mps 670 mmHg 91%
    10:00 -21°C° 0.1 mm 3 mps 671 mmHg 89%
    11:00 -19°C° 0 mm 3 mps 671 mmHg 86%
    12:00 -19°C° 0 mm 4 mps 671 mmHg 84%
    13:00 -19°C° 0 mm 4 mps 671 mmHg 81%
    14:00 -19°C° 0.1 mm 4 mps 670 mmHg 85%
    15:00 -19°C° 0.1 mm 3 mps 670 mmHg 88%
    16:00 -19°C° 0.1 mm 2 mps 670 mmHg 92%
    17:00 -19°C° 0.1 mm 2 mps 670 mmHg 92%
    18:00 -19°C° 0.1 mm 2 mps 670 mmHg 93%
    19:00 -21°C° 0.1 mm 3 mps 671 mmHg 93%
    20:00 -21°C° 0.1 mm 3 mps 671 mmHg 92%
    21:00 -21°C° 0.1 mm 3 mps 671 mmHg 92%
    22:00 -21°C° 0.1 mm 3 mps 671 mmHg 91%
    23:00 -22°C° 0.1 mm 3 mps 670 mmHg 91%

    Day after tomorrow, 15 December, Friday

    Time Temperature Precipitation Wind Pressure Humidity
    00:00 -23°C° 0.1 mm 4 mps 670 mmHg 91%
    01:00 -23°C° 0.1 mm 4 mps 670 mmHg 90%
    02:00 -23°C° 0.1 mm 4 mps 670 mmHg 90%
    03:00 -24°C° 0.1 mm 4 mps 670 mmHg 91%
    04:00 -24°C° 0.1 mm 4 mps 670 mmHg 91%
    05:00 -25°C° 0.1 mm 4 mps 670 mmHg 91%
    06:00 -24°C° 0.1 mm 3 mps 670 mmHg 92%
    07:00 -25°C° 0.1 mm 3 mps 670 mmHg 92%
    08:00 -24°C° 0 mm 3 mps 670 mmHg 90%
    09:00 -24°C° 0 mm 3 mps 671 mmHg 89%
    10:00 -23°C° 0 mm 3 mps 671 mmHg 87%
    11:00 -24°C° 0.1 mm 4 mps 671 mmHg 86%
    12:00 -23°C° 0.1 mm 4 mps 671 mmHg 84%
    13:00 -22°C° 0.1 mm 4 mps 671 mmHg 83%
    14:00 -23°C° 0.1 mm 4 mps 671 mmHg 86%
    15:00 -22°C° 0.1 mm 3 mps 671 mmHg 88%
    16:00 -23°C° 0.1 mm 3 mps 671 mmHg 91%
    17:00 -21°C° 0.1 mm 2 mps 671 mmHg 92%
    18:00 -21°C° 0.1 mm 2 mps 671 mmHg 93%
    19:00 -21°C° 0.1 mm 2 mps 671 mmHg 93%
    20:00 -21°C° 0.1 mm 2 mps 671 mmHg 94%
    21:00 -21°C° 0.1 mm 2 mps 671 mmHg 94%
    22:00 -21°C° 0.1 mm 2 mps 671 mmHg 94%
    23:00 -20°C° 0.1 mm 2 mps 671 mmHg 94%

    16 December, Saturday

    Time Temperature Precipitation Wind Pressure Humidity
    00:00 -20°C° 0.1 mm 2 mps 671 mmHg 94%
    01:00 -20°C° 0.1 mm 2 mps 671 mmHg 95%
    02:00 -20°C° 0.1 mm 2 mps 671 mmHg 95%
    03:00 -20°C° 0.1 mm 2 mps 670 mmHg 94%
    04:00 -19°C° 0.1 mm 2 mps 670 mmHg 94%
    05:00 -19°C° 0.1 mm 2 mps 670 mmHg 95%
    06:00 -18°C° 0.1 mm 2 mps 670 mmHg 95%
    07:00 -18°C° 0.1 mm 2 mps 670 mmHg 95%
    08:00 -17°C° 0.2 mm 2 mps 670 mmHg 93%
    09:00 -16°C° 0.2 mm 3 mps 670 mmHg 92%
    10:00 -15°C° 0.2 mm 3 mps 670 mmHg 90%
    11:00 -16°C° 0.2 mm 4 mps 670 mmHg 89%
    12:00 -15°C° 0.2 mm 4 mps 669 mmHg 87%
    13:00 -14°C° 0.2 mm 4 mps 669 mmHg 86%
    14:00 -15°C° 0.1 mm 4 mps 669 mmHg 87%
    15:00 -15°C° 0.1 mm 4 mps 668 mmHg 89%
    16:00 -15°C° 0.1 mm 4 mps 668 mmHg 90%
    17:00 -15°C° 0.2 mm 4 mps 668 mmHg 90%
    18:00 -15°C° 0.2 mm 4 mps 668 mmHg 90%
    19:00 -15°C° 0.2 mm 4 mps 668 mmHg 90%
    20:00 -15°C° 0.2 mm 4 mps 668 mmHg 91%
    21:00 -15°C° 0.2 mm 4 mps 668 mmHg 91%
    22:00 -14°C° 0.2 mm 3 mps 668 mmHg 91%
    23:00 -14°C° 0.2 mm 3 mps 667 mmHg 91%

    17 December, Sunday

    Time Temperature Precipitation Wind Pressure Humidity
    00:00 -14°C° 0.2 mm 3 mps 667 mmHg 92%
    01:00 -14°C° 0.2 mm 3 mps 667 mmHg 93%
    02:00 -15°C° 0.2 mm 4 mps 667 mmHg 92%
    03:00 -16°C° 0.2 mm 4 mps 666 mmHg 92%
    04:00 -16°C° 0.2 mm 4 mps 666 mmHg 91%
    05:00 -16°C° 0.1 mm 4 mps 666 mmHg 90%
    06:00 -16°C° 0.1 mm 4 mps 667 mmHg 90%
    07:00 -17°C° 0.1 mm 4 mps 667 mmHg 89%
    08:00 -17°C° 0.1 mm 4 mps 667 mmHg 88%
    09:00 -17°C° 0.1 mm 4 mps 668 mmHg 86%
    10:00 -18°C° 0.1 mm 4 mps 668 mmHg 84%
    11:00 -18°C° 0 mm 5 mps 669 mmHg 83%
    12:00 -18°C° 0 mm 5 mps 669 mmHg 83%
    13:00 -18°C° 0 mm 5 mps 669 mmHg 82%
    14:00 -19°C° 0.1 mm 5 mps 670 mmHg 84%
    15:00 -19°C° 0.1 mm 4 mps 670 mmHg 86%
    16:00 -19°C° 0.1 mm 4 mps 670 mmHg 88%
    17:00 -19°C° 0.1 mm 4 mps 670 mmHg 88%
    18:00 -19°C° 0.1 mm 4 mps 670 mmHg 89%
    19:00 -20°C° 0.1 mm 4 mps 671 mmHg 90%
    20:00 -20°C° 0.1 mm 4 mps 670 mmHg 91%
    21:00 -20°C° 0.1 mm 4 mps 670 mmHg 91%
    22:00 -20°C° 0.1 mm 4 mps 670 mmHg 91%
    23:00 -20°C° 0.1 mm 4 mps 670 mmHg 91%

    18 December, Monday

    Time Temperature Precipitation Wind Pressure Humidity
    00:00 -19°C° 0.1 mm 3 mps 670 mmHg 92%
    01:00 -19°C° 0.1 mm 3 mps 670 mmHg 92%
    02:00 -21°C° 0.1 mm 3 mps 670 mmHg 93%
    03:00 -21°C° 0.1 mm 3 mps 670 mmHg 93%
    04:00 -21°C° 0.1 mm 3 mps 670 mmHg 94%
    05:00 -20°C° 0.1 mm 2 mps 670 mmHg 94%
    06:00 -20°C° 0.1 mm 2 mps 670 mmHg 94%
    07:00 -20°C° 0.1 mm 2 mps 670 mmHg 95%
    08:00 -19°C° 0 mm 2 mps 671 mmHg 93%
    09:00 -18°C° 0 mm 2 mps 671 mmHg 92%
    10:00 -18°C° 0 mm 2 mps 671 mmHg 90%
    11:00 -17°C° 0 mm 2 mps 671 mmHg 88%
    12:00 -16°C° 0 mm 2 mps 671 mmHg 86%
    13:00 -16°C° 0 mm 3 mps 671 mmHg 84%
    14:00 -16°C° 0.1 mm 2 mps 671 mmHg 87%
    15:00 -17°C° 0.1 mm 2 mps 671 mmHg 90%
    16:00 -18°C° 0.1 mm 2 mps 670 mmHg 93%
    17:00 -18°C° 0.1 mm 2 mps 670 mmHg 93%
    18:00 -19°C° 0.1 mm 2 mps 670 mmHg 93%
    19:00 -19°C° 0.1 mm 2 mps 670 mmHg 94%
    20:00 -19°C° 0.1 mm 2 mps 670 mmHg 94%
    21:00 -17°C° 0.1 mm 1 mps 670 mmHg 94%
    22:00 -17°C° 0.1 mm 1 mps 670 mmHg 94%
    23:00 -17°C° 0.1 mm 1 mps 669 mmHg 94%
    Show more